Volver al catálogo

CZ-6A DEB

ActivoSSO
NORAD 54586·DEBRIS·🇨🇳 China

Lanzado Nov 11, 2022 desde Taiyuan Satellite Launch Center

Loading…

Próximos Pases (próximas 24 horas)

TLE

ActualizadoSource: Space-Track

Época: Sep 14, 2026, 12:33 UTC

1 54586U 22151MN  26257.52305436  .00000962  00000-0  41640-3 0  9994
2 54586  98.7550 277.8096 0063451  78.9289 281.9017 14.25561940198648

Sigue CZ-6A DEB en tiempo real con AllMySat

Download on the App Store